Flag for United Arab Emirates Weather past 2 weeks in Al Ain, Abu Dhabi, United Arab Emirates

Now
73 °F

Passing clouds.


Feels Like: 76 °F
Forecast: 53 / 77 °F
Wind: 5 mph from Southeast

Location: Al Ain International Airport

Current Time: Jan 26, 2015 at 1:33:03 PM

Latest Report: Jan 26, 2015 at 1:00 PM


Visibility: N/A

Pressure: 30.21 "Hg

Humidity: 29%

Dew point: 39 °F

Location of Al AinLocation

Historic Weather in Al Ain — Graph

°F

Al Ain temperature yesterday

Maximum temperature yesterday: 75 °F (at 4:00 PM)
Minimum temperature yesterday: 55 °F (at 6:00 AM)
Average temperature yesterday: 64 °F

Past Weeks' High & Low Weather Summary

 TemperatureHumidityPressure
High81 °F (Jan 15, 4:00 PM)100% (Jan 21, 5:00 AM)30.27 "Hg (Jan 21, 5:00 AM)
Low48 °F (Jan 20, 5:00 AM)14% (Jan 15, 11:00 AM)29.95 "Hg (Jan 19, 3:00 AM)
Average63 °F60%30.13 "Hg
* Reported Jan 11 12:00 Noon — Jan 26 12:00 Noon, Al Ain, Weather by CustomWeather, © 2014

Note: Actual official high and low records may vary slightly from our data, if they occured in-between our weather recording intervals... More about our weather records

Advertising

Al Ain weather history for previous 24 hours

 ConditionsComfort  
Time TempWeatherWind HumidityBarometerVisibility
12:00 PM
Jan 26
73 °FPassing clouds.6 mph33%30.21 "HgN/A
11:00 AM70 °FSunny.12 mph38%30.24 "Hg10 mi
10:00 AM66 °FPassing clouds.9 mph52%30.24 "HgN/A
9:00 AM63 °FSunny.5 mph59%30.24 "Hg10 mi
8:00 AM59 °FSunny.7 mph63%30.24 "Hg10 mi
7:00 AM57 °FClear.7 mph67%30.21 "Hg10 mi
6:00 AM57 °FClear.7 mph77%30.18 "Hg10 mi
5:00 AM57 °FClear.7 mph77%30.18 "Hg10 mi
4:00 AM59 °FClear.6 mph72%30.18 "Hg10 mi
3:00 AM61 °FClear.6 mph68%30.18 "Hg10 mi
2:00 AM63 °FClear.9 mph64%30.18 "Hg10 mi
1:00 AM61 °FClear.9 mph63%30.21 "Hg10 mi
12:00 AM61 °FClear.8 mph55%30.21 "Hg10 mi
11:00 PM
Jan 25
63 °FClear.12 mph49%30.21 "Hg10 mi
10:00 PM64 °FClear.15 mph46%30.21 "Hg10 mi
9:00 PM66 °FClear.14 mph46%30.21 "Hg10 mi
8:00 PM66 °FClear.14 mph60%30.18 "Hg10 mi
7:00 PM70 °FClear.6 mph38%30.18 "Hg10 mi
6:00 PM72 °FClear.7 mph33%30.15 "Hg10 mi
5:00 PM73 °FPassing clouds.8 mph38%30.15 "HgN/A
4:00 PM75 °FSunny.5 mph29%30.12 "Hg10 mi
3:00 PM73 °FPassing clouds.3 mph31%30.15 "HgN/A
2:00 PM73 °FPassing clouds.7 mph31%30.15 "HgN/A
1:00 PM73 °FPassing clouds.5 mph33%30.18 "HgN/A
Weather by CustomWeather, © 2014

See weather overviewHow to use our weather pages